Simultaneous Nadir Overpasses (SNOs) Predictions

Prediction of SNOs between METOP-C and LANDSAT-8 Satellite Orbit:

Table of predicted SNOs for the next 14.0 days since TLE Epoch: 8/5/2023
Index Date (METOP-C) Time (METOP-C) Lat,Lon (METOP-C) SZA (METOP-C ) Date (LANDSAT-8) Time (LANDSAT-8) Lat,Lon (LANDSAT-8) SZA (LANDSAT-8 ) Distance(km) Time Diff (sec)
1 08/06/2023 23:52:53 -81.19, 42.63 113.31 08/06/2023 23:53:53 -81.19, 42.65 113.28 0.36 60
2 08/07/2023 00:43:31 81.22,-149.06 66.83 08/07/2023 00:43:18 81.22,-149.25 66.81 3.33 13
3 08/09/2023 19:27:16 -81.18, 108.90 112.52 08/09/2023 19:28:08 -81.19, 109.08 112.47 3.23 52
4 08/09/2023 20:17:54 81.21, -82.76 67.62 08/09/2023 20:17:33 81.22, -82.85 67.60 1.43 21
5 08/12/2023 15:01:36 -81.20, 175.84 111.61 08/12/2023 15:02:21 -81.20, 175.68 111.61 2.68 45
6 08/12/2023 15:52:16 81.21, -16.55 68.44 08/12/2023 15:51:47 81.20, -16.65 68.41 1.80 29
7 08/15/2023 10:35:59 -81.19,-118.05 110.78 08/15/2023 10:36:35 -81.20,-117.92 110.75 2.38 36
8 08/15/2023 11:26:38 81.21, 49.96 69.32 08/15/2023 11:26:00 81.22, 50.10 69.32 2.38 38
9 08/18/2023 06:10:20 -81.20, -51.27 109.83 08/18/2023 06:10:48 -81.20, -51.36 109.83 1.49 28



Historial Predications of SNOs between METOP-C and LANDSAT-8
